GAOFEN 12-3 (52912 NORAD) Tracking and Keplerian Element Data

This shows tracking and keplerian element data for the satellite.

Feedback or suggestion? Click here.




ElementValue
Catalog52912
NameGAOFEN 12-3
Epoch Orbit1352
Epoch Day270.12262372
Epoch Year2022
RAAN157.0413
Inclination97.9792
Eccentricity0.0001163
Argument of Perigee149.1992
Mean Anonmoly210.9293
Mean Motion14.80314245
Decay Rate8.38E-06
L11 52912U 22069A 22270.12262372 .00000838 00000+0 11686-3 0 9999
L22 52912 97.9792 157.0413 0001163 149.1992 210.9293 14.80314245 13520

Live tracking and technical data element details for GAOFEN 12-3 (NORAD 52912). GAOFEN 12-3 can be tracked NOW for your location showing map with azimuth and elevation plus other details from your city location.

Track the satellite on the map from your city or location and see movement details for azimuth, elevation, latitude, longitude, range, height, and movement on the map or in text.







IsCatalogInMostPopularTable: catalog: 52912, numindb: 7
Update: records affected: 1



GetName: 52912 GAOFEN 12-3

Hit Count: updated at: Thu, 06 Oct 2022 03:42:44 GMT